Content
SEND FEEDBACK

Daily
Averages
Monthly
Summary
United States of America

LAKE SABRINA, CALIFORNIA


Home > North America > United States > California
Elevation: 9715 feet     Latitude: 37 13N     Longitude: 118 37W

WEATHER
 
SELECT A DAY
Number of Records: 174,411;   Date Range: 1/1/95 - 10/19/14
 
SHARE

PRINT THIS DATA

[ ← Previous Day ]
WEATHER ALMANAC - FEBRUARY 13, 2013
[ Next Day → ]
[ °C ]   °F
Weather ElementAverageHighLow
Temperature46.6 °F64 °F (2:56 pm)28 °F (3:56 am)
Dewpoint17.6 °F21.9 °F (6:56 pm)10.9 °F (5:56 am)
Humidity33.9 %51 % (3:56 am)19 % (2:56 pm)
Barometer30.22 in30.31 in (6:56 am)30.12 in (2:56 pm)
Wind Speed9.7 mph16.1 mph (5:56 pm)
Wind Gust24.2 mph (4:56 pm)
Weather ElementAverage
Visibility10 mi
Wind DirectionWSW (237.4 °)

Weather ElementTotal
Precipitation---
Heating Degree Days19 (Base 65)
Averaged from 23 records on February 13, 2013
WEATHER CONDITIONS BREAKOUT
WIND DIRECTION BREAKOUT
WEATHER BY HOUR - FEBRUARY 13, 2013
[ °C ]   °F
Local TimeTemperatureDewpointHumidityBarometerVisibilityWind DirectionWind SpeedGust SpeedPrecipitationEventsConditions
1:56 AM30.0 °F12.0 °F47 %30.27 in10.0 miWest (280°)8.1 mphClear
2:56 AM32.0 °F12.0 °F44 %30.25 in10.0 miNW (310°)4.6 mphClear
3:56 AM28.0 °F12.0 °F51 %30.26 in10.0 miWNW (290°)8.1 mphClear
4:56 AM34.0 °F14.0 °F44 %30.27 in10.0 miNW (320°)9.2 mphClear
5:56 AM28.9 °F10.9 °F47 %30.29 in10.0 miWest (260°)5.8 mphClear
6:56 AM28.0 °F12.0 °F51 %30.31 in10.0 miWNW (300°)8.1 mphClear
7:56 AM39.0 °F15.1 °F38 %30.30 in10.0 miNW (310°)9.2 mphClear
8:56 AM46.9 °F17.1 °F30 %30.29 in10.0 miNNW (330°)11.5 mphClear
9:56 AM54.0 °F16.0 °F22 %30.27 in10.0 miNNW (340°)12.7 mphClear
10:56 AM57.0 °F16.0 °F20 %30.25 in10.0 miNorth (350°)10.4 mph16.1 mphClear
11:56 AM60.1 °F19.0 °F20 %30.20 in10.0 miVariable3.5 mphClear
12:56 PM62.1 °F19.9 °F20 %30.17 in10.0 miNW (310°)9.2 mph17.3 mphClear
1:56 PM62.1 °F19.9 °F20 %30.15 in10.0 miVariable4.6 mphClear
2:56 PM64.0 °F21.0 °F19 %30.12 in10.0 miNW (320°)8.1 mphClear
3:56 PM63.0 °F19.9 °F19 %30.12 in10.0 miNorth (360°)12.7 mphClear
4:56 PM59.0 °F21.0 °F23 %30.12 in10.0 miNorth (360°)13.8 mph24.2 mphClear
5:56 PM54.0 °F21.0 °F28 %30.15 in10.0 miNorth (360°)16.1 mphClear
6:56 PM50.0 °F21.9 °F33 %30.19 in10.0 miNorth (360°)16.1 mphClear
7:56 PM48.9 °F21.9 °F35 %30.19 in10.0 miNorth (10°)15.0 mphClear
8:56 PM45.0 °F21.0 °F39 %30.21 in10.0 miNorth (10°)8.1 mphClear
9:56 PM45.0 °F21.0 °F39 %30.20 in10.0 miNorth (10°)12.7 mphClear
10:56 PM42.1 °F21.0 °F43 %30.22 in10.0 miNorth (10°)9.2 mphClear
11:56 PM37.9 °F19.9 °F48 %30.23 in10.0 miWest (260°)5.8 mphClear
Hourly data recorded from KBIH, located miles away from Lake Sabrina, California







STORIES FROM OUR PARTNERS